Regional Weather Roundup
Issued by NWS

Home | Current Version | Previous Version | Graphics & Text | Print | Product List | Glossary On
Versions: 1 2 3 4 5 6 7 8 9 10 11 12 13 14 15 16 17 18 19 20 21 22 23 24 25 26 27 28 29 30 31 32 33 34 35 36 37 38 39 40 41 42 43 44 45 46 47 48 49 50
692
ASUS44 KMEG 250310
RWRTN
TENNESSEE HOURLY STATE WEATHER ROUNDUP
NATIONAL WEATHER SERVICE MEMPHIS TN
900 PM CST FRI NOV 24 2017

TNZ002-004-019-021-049-052-054-088>092-250400-
WEST TENNESSEE

CITY           SKY/WX    TMP DP  RH WIND       PRES   REMARKS
MEMPHIS INTL   MOCLDY    55  30  38 S10       29.89S
NWS MEMPHIS      N/A     55 N/A N/A MISG        N/A
JACKSON        PTCLDY    53  31  42 S13       29.88F
DYERSBURG      CLOUDY    54  32  43 S7        29.86R
SOMERVILLE     CLEAR     52  32  46 S8        29.88S
COVINGTON      PTCLDY    54  32  43 S14       29.86F
UNION CITY     CLEAR     54  32  43 S10       29.84R
BOLIVAR        CLEAR     46  30  53 MISG      29.89S
PARIS          CLEAR     52  30  43 S10       29.84S HAZE
HUNTINGDON     CLEAR     54  30  40 S13       29.85F
LEXINGTON      CLEAR     48  28  46 S6        29.89S
SELMER         CLEAR     52  25  35 VRB5      29.90S
SAVANNAH       CLEAR     45  32  61 SE5       29.91S
$$

TNZ008-025-027-028-033-062-065-066-250400-
NORTH MIDDLE TENNESSEE

CITY           SKY/WX    TMP DP  RH WIND       PRES   REMARKS
NASHVILLE      CLEAR     46  32  58 S7        29.90F
PORTLAND       CLEAR     52  30  43 S12       29.86F
CLARKSVILLE    CLEAR     49  27  42 S8        29.85F
SMYRNA         CLEAR     40  34  79 S3        29.92F
COOKEVILLE     CLEAR     36  34  93 CALM      29.92F
GALLATIN       CLEAR     52  34  50 S5        29.91F
CROSSVILLE     CLEAR     46  37  71 SW3       29.95R
$$

TNZ061-075-076-078-094-096-097-250400-
SOUTH MIDDLE TENNESSEE

CITY           SKY/WX    TMP DP  RH WIND       PRES   REMARKS
FAYETTEVILLE   CLEAR     48  39  71 S6        29.95S
TULLAHOMA      CLEAR     41  36  81 S6        29.94S
WINCHESTER     CLEAR     37  36  93 CALM      29.96S
MCMINNVILLE    CLEAR     48  39  71 SW5       29.94S
COLUMBIA       CLEAR     46  28  49 S6        29.89F
SHELBYVILLE    CLEAR     45  36  70 S7        29.93S
$$

TNZ017-018-042-046-047-250400-
NORTHEAST TENNESSEE

CITY           SKY/WX    TMP DP  RH WIND       PRES   REMARKS
TRI CITIES     CLOUDY    37  34  89 CALM      29.94S
ELIZABETHTON   CLEAR     45  36  70 VRB3      29.94S
$$

TNZ012-013-036-069-073-074-250400-
CENTRAL EAST TENNESSEE

CITY           SKY/WX    TMP DP  RH WIND       PRES   REMARKS
KNOXVILLE      CLOUDY    45  41  86 CALM      29.94R
OAK RIDGE      PTCLDY    45  40  82 SW3       29.96R
DOWNTOWN KNOXV CLEAR     41  41 100 CALM      29.96R
GATLINBURG     CLEAR     41  39  93 CALM      29.95R
MORRISTOWN     CLEAR     45  37  76 CALM      29.94S
JACKSBORO      CLEAR     41  37  87 CALM      29.97S
$$

TNZ083-085-099-250400-
SOUTHEAST TENNESSEE

CITY           SKY/WX    TMP DP  RH WIND       PRES   REMARKS
CHATTANOOGA    PTCLDY    44  40  85 CALM      29.97R
DAYTON         MOCLDY    41  41 100 CALM      29.95S
$$

SKY/WX REPORTED AS FAIR MEANS FEW OR NO CLOUDS BELOW
12 THOUSAND FEET.





USA.gov is the U.S. government's official web portal to all federal, state and local government web resources and services.